www.pogodaiklimat.ru

Погода и климат >> Архив погоды >> Индонезия >> Банджармасин


ПОГОДА в Банджармасине

  • Прогноз погоды в Банджармасине
  • Монитор погоды в Банджармасине

АРХИВ ПОГОДЫ в Банджармасине

Время (UTC), дата Ветер
(напр.,м/с)
 
Видим.   Явления Облачность Т
(С)
Тd
(С)
f
(%)
Тe
(С)
Тes
(С)
Комфортность P
(гПа)
Po
(гПа)
Тmin
(С)
Tmax
(С)
R
(мм)
R24
(мм)
S
(см)
12 15.01 СВ 2 10 км в посл. час дождь {гроза} 10/6 450 м
[Cu Sc As trans]
+25.8 +24.7 94 +37 +37 очень
душно
1008.8 1006.7 +29.8 0.8
15 15.01 СВ 2 10 км в посл. час гроза {дождь} 9/5 540 м
[Cb cap As trans Ci fib]
+25.6 +24.9 96 +36 +36 очень
душно
1010.1 1007.9 1
18 15.01 штиль 0 10 км {дождь} 9/5 540 м
[Sc As trans Ci fib]
+24.9 +24.4 97 +35 +35 очень
душно
1008.3 1006.1 3
21 15.01 С 3 10 км 9/5 540 м
[Sc As trans Ci fib]
+24.6 +24.0 96 +34 +34 очень
душно
1008.2 1006.0
00 16.01 С 3 10 км 10/6 540 м
[Sc As trans]
+25.2 +24.4 95 +35 +36 очень
душно
1010.1 1007.9 +24.8 8
03 16.01 С 4 10 км 8/5 570 м
[Cu Sc As trans Ci fib]
+28.6 +24.5 79 +41 +45 опасность
перегрева
1009.5 1007.3
06 16.01 З 6 10 км 8/5 570 м
[Cu Sc As trans Ci fib]
+30.2 +24.5 72 +43 +45 опасность
перегрева
1008.0 1005.8
09 16.01 ЮЗ 4 7000 м слаб. дождь 8/5 480 м
[Cu Sc As trans Ci fib]
+27.4 +25.2 88 +40 +40 очень
душно
1007.0 1004.9 0.5
12 16.01 В 2 9000 м {дождь} 8/4 500 м
[Cu Sc As trans Ci fib]
+27.0 +23.7 82 +37 +37 очень
душно
1008.5 1006.3 +31.8 0.0
15 16.01 штиль 0 9000 м 8/3 540 м
[Sc As trans Ci fib]
+26.4 +24.5 89 +37 +37 очень
душно
1010.0 1007.9
18 16.01 штиль 0 9000 м 8/3 540 м
[Sc As trans Ci fib]
+25.4 +25.1 98 +36 +36 очень
душно
1008.5 1006.4
21 16.01 СВ 3 9000 м 8/3 540 м
[Sc As trans Ci fib]
+24.8 +23.7 94 +34 +34 очень
душно
1008.0 1005.8
00 17.01 СВ 3 10 км 8/3 <50 м
[Sc Ac trans Ci fib]
+24.6 +23.8 95 +33 +35 очень
душно
1009.9 1007.7 +24.2 0.5
03 17.01 СВ 3 10 км 9/5 540 м
[Sc As trans Ci fib]
+28.0 +24.5 81 +39 +44 очень
душно
1009.6 1007.4
06 17.01 СВ 3 10 км 9/5 600 м
[Sc As trans Ci fib]
+29.4 +24.8 76 +42 +46 опасность
перегрева
1008.6 1006.5
09 17.01 СВ 3 10 км 9/3 600 м
[Sc As trans Ci fib]
+28.8 +25.0 80 +42 +43 опасность
перегрева
1007.2 1005.0
12 17.01 СЗ 3 10 км 9/3 600 м
[Sc As trans Ci fib]
+27.8 +25.1 85 +40 +40 очень
душно
1009.1 1007.0 +30.4
15 17.01 штиль 0 10 км 8/3 540 м
[Sc As trans Ci fib]
+27.0 +24.8 88 +39 +39 очень
душно
1010.0 1007.8
18 17.01 штиль 0 10 км 8/4 540 м
[Cu Sc As trans Ci fib]
+26.0 +25.2 95 +37 +37 очень
душно
1009.1 1007.0
21 17.01 В 2 10 км 8/4 540 м
[Cu Sc As trans Ci fib]
+25.4 +24.3 94 +35 +35 очень
душно
1007.5 1005.3
03 18.01 С 4 10 км 6/3 600 м
[Sc As trans Ci fib]
+29.6 +24.4 74 +42 +49 опасность
перегрева
1009.0 1006.8
06 18.01 СВ 3 10 км 9/5 600 м
[Cu Sc As trans Ci fib]
+31.5 +24.7 67 +44 +49 опасность
перегрева
1007.0 1004.9
09 18.01 В 4 10 км 9/5 600 м
[Cu Sc As trans Ci fib]
+31.2 +24.1 66 +43 +44 опасность
перегрева
1005.9 1003.7
12 18.01 ЮВ 2 10 км 6/3 540 м
[Sc As trans Ci fib]
+27.8 +24.2 81 +39 +39 очень
душно
1008.0 1005.8 +32.2
15 18.01 Ю 2 9000 м 6/3 540 м
[Sc As trans Ci fib]
+26.4 +23.9 86 +36 +36 очень
душно
1009.6 1007.4
18 18.01 штиль 0 9000 м 6/3 540 м
[Sc As trans Ci fib]
+26.2 +24.0 88 +36 +36 очень
душно
1008.2 1006.1
21 18.01 Ю 2 9000 м 8/5 540 м
[Cu Sc As trans Ci fib]
+26.2 +24.8 92 +37 +37 очень
душно
1007.7 1005.5
00 19.01 СВ 2 10 км {дождь} 8/3 570 м
[Sc As trans Ci fib]
+26.2 +23.7 86 +36 +38 очень
душно
1009.4 1007.2 +25.4 0.0
03 19.01 З 1 10 км 6/3 570 м
[Sc As trans Ci fib]
+31.0 +24.5 68 +43 +55 опасность
перегрева
1009.7 1007.5
06 19.01 Ю 2 10 км 8/5 600 м
[Cu Sc As trans Ci fib]
+32.0 +24.6 65 +45 +51 опасность
перегрева
1006.6 1004.5
09 19.01 СЗ 2 10 км 9/6 540 м
[Cb cap As trans Ci fib]
+29.8 +24.9 75 +43 +43 опасность
перегрева
1005.7 1003.6
12 19.01 штиль 0 10 км 8/3 540 м
[Sc As trans Ci fib]
+28.4 +25.2 83 +41 +41 опасность
перегрева
1008.2 1006.0 +33.0
15 19.01 СВ 2 10 км 8/3 540 м
[Sc As trans Ci fib]
+27.4 +25.5 89 +40 +40 очень
душно
1009.9 1007.7
18 19.01 В 5 10 км 8/3 540 м
[Sc As trans Ci fib]
+25.6 +24.8 95 +36 +36 очень
душно
1008.6 1006.5
21 19.01 С 2 8000 м в посл. час дождь 9/4 500 м
[Cu Sc As trans Ci fib]
+25.0 +24.2 95 +34 +34 очень
душно
1008.2 1006.1 7
00 20.01 СВ 2 8000 м 9/4 480 м
[Cu Sc As trans Ci fib]
+25.4 +24.6 95 +36 +37 очень
душно
1009.8 1007.7 +24.8 7
03 20.01 СВ 3 10 км {дождь} 9/6 500 м
[Cu Sc As trans Ci fib]
+29.6 +26.0 81 +44 +49 опасность
перегрева
1010.4 1008.3
06 20.01 ЮВ 2 2000 м дождь {гроза} 10/6 480 м
[Cb cap As trans Ci fib]
+25.0 +24.5 97 +35 +39 очень
душно
1009.5 1007.4 16
09 20.01 ЮВ 2 7000 м слаб. дождь 10/6 500 м
[Cu Sc As trans Ci fib]
+24.8 +24.5 98 +35 +35 очень
душно
1008.1 1006.0 6
12 20.01 В 2 10 км {дождь} 8/3 540 м
[Sc As trans Ci fib]
+25.0 +24.3 96 +35 +35 очень
душно
1008.6 1006.5 +29.7 0.5
15 20.01 штиль 0 10 км 5/1 540 м
[Sc As trans Ci fib]
+24.9 +24.4 97 +35 +35 очень
душно
1009.7 1007.5
18 20.01 В 2 10 км 9/3 540 м
[Sc As trans Ci fib]
+24.5 +24.1 98 +34 +34 очень
душно
1008.8 1006.7
21 20.01 штиль 0 10 км в посл. час дождь 9/4 540 м
[Cu Sc As trans Ci fib]
+24.5 +24.1 98 +34 +34 очень
душно
1007.9 1005.8 1
00 21.01 В 1 7000 м слаб. дождь 9/4 540 м
[Cu Sc As trans Ci fib]
+24.9 +24.2 96 +34 +36 очень
душно
1009.6 1007.4 +24.4 2
03 21.01 СВ 3 10 км слаб. дождь 10/8 500 м
[Sc As trans Ci fib]
+26.5 +25.8 96 +39 +41 очень
душно
1009.7 1007.5 1
06 21.01 ЮЗ 3 2000 м гроза, ливневой дождь 10/6 480 м
[Cb cap As op Ci fib]
+24.6 +24.2 98 +34 +37 очень
душно
1009.5 1007.3 16
09 21.01 ЮЗ 2 4000 м слаб. дождь {гроза} 10/5 480 м
[Cu Sc As op Ci fib]
+25.0 +24.7 98 +35 +36 очень
душно
1007.8 1005.6 14
12 21.01 СЗ 2 8000 м {гроза, дождь} 9/4 480 м
[Sc As trans Ci fib]
+24.8 +24.5 98 +35 +35 очень
душно
1009.4 1007.2 +29.6 1
15 21.01 СВ 2 7000 м 9/3 480 м
[Cu Sc As trans Cs]
+24.9 +24.8 99 +35 +35 очень
душно
1010.6 1008.5
18 21.01 С 2 7000 м 8/3 480 м
[Cu Sc As trans Cs]
+24.9 +24.8 99 +35 +35 очень
душно
1009.1 1006.9
21 21.01 СЗ 1 5000 м в посл. час дождь 9/3 480 м
[Cu Sc As trans Ci fib]
+24.2 +23.6 96 +33 +33 очень
душно
1008.3 1006.2 2
00 22.01 СВ 3 10 км {дождь} 9/3 540 м
[Sc As trans Ci fib]
+24.9 +24.8 99 +35 +36 очень
душно
1010.2 1008.0 +24.2 0.5
03 22.01 С 3 10 км в посл. час дождь 9/5 540 м
[Sc As trans Ci fib]
+26.8 +24.3 86 +37 +42 очень
душно
1010.6 1008.4 0.0
06 22.01 З 6 1000 м слаб. дождь 10/8 360 м
[Cu Sc As op]
+24.0 +23.4 96 +32 +32 очень
душно
1010.7 1008.5 8
09 22.01 З 3 10 км {дождь} 9/3 540 м
[Sc As trans Ci fib]
+25.8 +24.2 91 +36 +37 очень
душно
1009.6 1007.4 4

 

Местоположение метеостанции Банджармасин (Индонезия): широта -3.43 долгота 114.75 высота над уровнем моря 20 м.

В архиве по умолчанию представлена погода в Банджармасине за последнюю неделю. Архивные данные за месяц целиком и за предыдущие месяцы, начиная с января 2011 года, Вы можете получить, выбрав интересующий диапазон дат из раскрывающегося списка и нажав кнопку "Ввод!".


*Определитесь, кто Вы:
робот инопланетянин человек

Внимание! Время в таблицах - всемирное. Для получения местного времени необходимо прибавить поправку, которая равна 8 ч.

Смотрите также архив погоды в соседних городах и на ближайших метеорологических станциях:

Погода в Котабару (Индонезия) (162 км)
Погода в Муаратевехе (Индонезия) (276 км)
Погода в Паоанкарая (Индонезия) (283 км)
Погода в Баликпапане (Индонезия) (339 км)
Погода в Пангкалан-Буне (Индонезия) (348 км)
Погода в Сангкапуре (Индонезия) (357 км)
Погода в Самаринде (Индонезия) (411 км)
Погода в Калиянджете (Индонезия) (412 км)
Погода в Сурабая Геданган (Индонезия) (437 км)
Погода в Нангапинохе (Индонезия) (476 км)

Пояснения к столбцам:

Ветер - указаны скорость ветра в м/с - средняя за 10 мин, порывы в срок и между сроками (в фигурных скобках) и направление, откуда дует ветер: С - северный, СВ - северо-восточный, В - восточный, ЮВ - юго-восточный, Ю - южный, ЮЗ - юго-западный, З - западный, СЗ - северо-западный.
Видимость - горизонтальная дальность видимости в метрах или километрах. При видимости от 1 до 10 км при отсутствии осадков обычно наблюдается дымка, при ухудшении видимости до 1 км и менее - туман. В сухую погоду видимость может ухудшаться дымом, пылью или мглою.
Явления - указаны атмосферные явления, наблюдавшиеся в срок или в последний час перед сроком; фигурными скобками обозначены явления, наблюдавшиеся между сроками (за 1-3 часа до срока); квадратными скобками обозначены град или гололедные отложения с указанием их диаметра в мм.
Облачность - указаны через наклонную черту общая и нижняя облачность в баллах и высота нижней границы облаков в метрах; квадратными скобками обозначены формы облаков: Ci - перистые, Cs - перисто-слоистые, Cc - перисто-кучевые, Ac - высококучевые, As - высокослоистые, Sc - слоисто-кучевые, Ns - слоисто-дождевые, Cu - кучевые, Cb - кучево-дождевые. Подробнее классификацию облаков см. в Атласе облаков (PDF).
T - Температура воздуха - температура, измеренная на высоте 2 м над землей.
Td - Температура точки росы - температура, при понижении до которой содержащийся в воздухе водяной пар достигнет насыщения.
f - Относительная влажность воздуха - влажноcть воздуха, измеренная на высоте 2 м над землей.
Te - Эффективная температура - температура, которую ощущает одетый по сезону человек в тени. Характеристика душности погоды. При расчете учитывается влияние влажности воздуха и скорости ветра на теплоощущения человека.
Tes - Эффективная температура на солнце - температура, которую ощущает человек, с поправкой на солнечный нагрев. Характеристика знойности погоды. Зависит от высоты солнца над горизонтом, облачности и скорости ветра. Ночью, в пасмурную погоду, а также при ветре 12 м/с и более поправка равна нулю.
P - Атмосферное давление - приведенное к уровню моря атмосферное давление.
Po - Атмосферное давление - измеренное на уровне метеостанции атмосферное давление.
Tmin - Минимальная температура - минимум температуры воздуха на высоте 2 м над землей.
Tmax - Максимальная температура - максимум температуры воздуха на высоте 2 м над землей.
R - Количество осадков - Количество выпавших осадков за период времени, мм. При наведении курсора мыши на число - период времени, за который выпало указанное количество осадков.
R24 - Количество осадков - Количество выпавших осадков за 24 часа, мм.
S - Снежный покров - Высота снежного покрова, см. При наведении курсора мыши на число - состояние снежного покрова и степень покрытия местности в баллах.